Location: Riverside Cemetery
(38.3047°N, 99.7773°W)
Time: 03:27:37
(UTC+00:00)

Meteor 1-15 Rocket - Pass Details

Date: 19 September 2020
Orbit: 840 x 907 km, 81.2° (Epoch: 22 October)

Event Time Altitude Azimuth Distance (km) Brightness Sun altitude
Rises 02:37:57 0° 186° (S) 3,385 7.2 -23.1°
Reaches altitude 10° 02:40:20 10° 186° (S) 2,458 6.4 -23.6°
Maximum altitude 02:45:55 87° 100° (E) 859 4.1 -24.6°
Drops below altitude 10° 02:51:37 10° 10° (N) 2,511 6.8 -25.6°
Sets 02:54:05 0° 10° (N) 3,462 7.6 -26.0°
